This is the latest recevied weather packets stored in our database for station/object HOWARD. If no packets are shown the sender has not sent any weather packets the latest 10 day(s).
| Time | Temp. | Humidity | Pressure | Rain* | Wind** | Luminosity | Snow |
|---|---|---|---|---|---|---|---|
| 1777839105 | 10.56° C | 41% | 1014.3 hPa | 0 mm | - | - | - |
| 1777838505 | 10.56° C | 42% | 1014.4 hPa | 0 mm | - | - | - |
| 1777837905 | 10.56° C | 44% | 1014.5 hPa | 0 mm | - | - | - |
| 1777837339 | 11.11° C | 44% | 1014.6 hPa | 0 mm | - | - | - |
| 1777837305 | 11.11° C | 44% | 1014.6 hPa | 0 mm | - | - | - |
| 1777836705 | 10.56° C | 43% | 1014.7 hPa | 0 mm | - | - | - |
| 1777836105 | 10.56° C | - | 1014.9 hPa | 0 mm | - | - | - |
| 1777835505 | 10.56° C | 41% | 1014.8 hPa | 0 mm | - | - | - |
| 1777834905 | 11.11° C | 44% | 1014.9 hPa | 0 mm | - | - | - |
| 1777834305 | 10.56° C | 47% | 1015 hPa | 0 mm | - | - | - |
| 1777833705 | 10° C | 45% | 1015.1 hPa | 0 mm | - | - | - |
| 1777833105 | 10° C | 45% | 1015 hPa | 0 mm | - | - | - |
| 1777832505 | 10.56° C | 43% | 1015.1 hPa | 0 mm | - | - | - |
| 1777831905 | 10.56° C | 47% | 1015.1 hPa | 0 mm | - | - | - |
| 1777831305 | 10.56° C | 47% | 1015 hPa | 0 mm | - | - | - |
| 1777830705 | 10° C | 47% | 1015.1 hPa | 0 mm | - | - | - |
| 1777830105 | 9.44° C | 49% | 1014.3 hPa | 0 mm | - | - | - |
| 1777829505 | 9.44° C | 48% | 1014.3 hPa | 0 mm | - | - | - |
| 1777828905 | 9.44° C | 51% | 1014.3 hPa | 0 mm | - | - | - |
| 1777828305 | 10° C | 48% | 1014.2 hPa | 0 mm | - | - | - |
| 1777827705 | 10° C | 51% | 1014.3 hPa | 0 mm | - | 1738 W/m² | - |
| 1777827263 | 10° C | 48% | 1014.2 hPa | 0 mm | - | - | - |
| 1777827105 | 10° C | 48% | 1014.2 hPa | 0 mm | - | - | - |
| 1777826505 | 10° C | 39% | 1014.2 hPa | 0 mm | - | - | - |
| 1777825905 | 10.56° C | 36% | 1014.2 hPa | 0 mm | - | - | - |
* Rain latest hour (hover to see other rain measurements)
** Current wind speed in m/s (hover to see current wind gust speed)